FW3929 Weather Reports


time (UTC)temp
C
wind
direction
speed
KPH
gust
KPH
rain 1hr
cm
rain 24hr
cm
rain mn
cm
humidity
%
barometer
mb
20260508001542 8 304 1.6 6.4 0.00 3.48 3.48 99 1002.8
20260508000038 9 316 0.0 0.0 0.00 3.48 3.48 100 1002.6
20260507234537 9 316 1.6 6.4 0.00 3.48 3.48 99 1002.9
20260507233036 10 262 0.0 6.4 0.00 3.48 3.48 100 1003.0
20260507231539 10 274 0.0 4.8 0.00 3.48 3.48 99 1002.5
20260507230037 10 284 0.0 9.7 0.00 3.48 3.48 100 1003.0
20260507224539 10 220 4.8 14.5 0.00 3.48 3.48 100 1002.9
20260507223033 10 201 1.6 14.5 0.03 3.48 3.48 100 1002.9
20260507221536 10 239 4.8 12.9 0.03 3.48 3.48 100 1003.2
20260507220032 10 268 3.2 17.7 0.05 3.48 3.48 99 1003.2
20260507214531 10 309 3.2 9.7 0.08 3.48 3.48 99 1003.4
20260507213032 10 207 3.2 11.3 0.10 3.45 3.45 99 1003.4
20260507211529 10 158 3.2 14.5 0.23 3.45 3.45 99 1002.9
20260507210029 9 145 6.4 16.1 0.38 3.43 3.43 99 1002.3
20260507204526 9 181 0.0 6.4 0.66 3.40 3.40 99 1002.9
20260507203022 9 162 1.6 8.0 0.99 3.35 3.35 99 1003.5
20260507201522 9 153 3.2 11.3 1.30 3.23 3.23 99 1004.0
20260507200031 9 190 3.2 12.9 1.52 3.05 3.05 99 1004.3
20260507194518 9 219 3.2 16.1 1.50 2.72 2.72 99 1004.8
20260507193019 9 230 4.8 20.9 1.40 2.34 2.34 99 1005.3
20260507191515 9 234 8.0 33.8 1.40 1.91 1.91 99 1005.9
20260507190031 10 220 4.8 19.3 1.09 1.50 1.50 98 1005.7
20260507184513 10 255 4.8 24.1 0.84 1.19 1.19 98 1005.8
20260507183018 11 196 8.0 24.1 0.58 0.94 0.94 99 1006.2
20260507181510 11 176 6.4 25.7 0.13 0.48 0.48 98 1005.7
20260507180012 11 141 11.3 25.7 0.05 0.41 0.41 98 1004.9
20260507174511 11 183 11.3 24.1 0.00 0.36 0.36 99 1004.9
20260507173007 11 151 8.0 29.0 0.00 0.36 0.36 99 1005.5
20260507171505 11 122 9.7 24.1 0.00 0.36 0.36 98 1005.8
20260507170004 11 178 6.4 22.5 0.00 0.36 0.36 99 1006.4
20260507164600 11 185 6.4 33.8 0.00 0.36 0.36 98 1006.8
20260507163158 11 150 8.0 19.3 0.00 0.36 0.36 98 1007.1
20260507161556 11 179 9.7 20.9 0.00 0.36 0.36 98 1007.3
20260507160100 11 150 11.3 27.4 0.00 0.36 0.36 98 1007.5
20260507154553 11 155 9.7 19.3 0.00 0.36 0.36 98 1008.1
20260507153055 11 145 9.7 24.1 0.00 0.36 0.36 98 1008.5
20260507151548 11 178 9.7 22.5 0.00 0.36 0.36 99 1009.2
20260507150047 11 180 8.0 24.1 0.00 0.36 0.36 99 1009.3
20260507144549 11 160 6.4 17.7 0.00 0.36 0.36 99 1009.7
20260507143043 11 147 9.7 30.6 0.00 0.36 0.36 99 1009.9
20260507141541 11 149 8.0 27.4 0.00 0.36 0.36 99 1010.4
20260507134540 11 160 8.0 25.7 0.00 0.36 0.36 100 1010.7
20260507133039 11 155 12.9 32.2 0.00 0.36 0.36 100 1010.4
20260507131539 11 154 9.7 29.0 0.03 0.36 0.36 100 1010.3
20260507130049 11 154 12.9 33.8 0.03 0.36 0.36 100 1010.4
20260507124636 11 141 11.3 30.6 0.03 0.36 0.36 100 1010.1
20260507123010 11 160 9.7 25.7 0.03 0.36 0.36 100 1010.7
20260507121509 10 155 9.7 33.8 0.03 0.33 0.33 99 1010.7
20260507120005 10 150 14.5 37.0 0.03 0.33 0.33 100 1011.3
20260507114502 10 166 11.3 29.0 0.10 0.33 0.33 99 1011.5
20260507113001 10 174 9.7 32.2 0.15 0.33 0.33 99 1012.2
20260507111600 10 195 12.9 32.2 0.15 0.30 0.30 99 1012.2
20260507110059 10 164 9.7 25.7 0.18 0.30 0.30 99 1012.1
20260507104556 10 175 9.7 32.2 0.10 0.23 0.23 99 1012.3
20260507103055 10 187 4.8 20.9 0.05 0.18 0.18 99 1012.7
20260507101553 10 264 3.2 16.1 0.03 0.15 0.15 99 1013.2
20260507100056 10 164 4.8 16.1 0.00 0.13 0.13 99 1013.0
20260507094554 11 208 1.6 8.0 0.00 0.13 0.13 99 1012.7
20260507093049 11 224 0.0 11.3 0.00 0.13 0.13 99 1013.0
20260507091648 11 251 4.8 12.9 0.03 0.13 0.13 99 1013.4
20260507090048 11 192 3.2 24.1 0.05 0.13 0.13 99 1013.0
20260507084551 10 187 4.8 14.5 0.05 0.13 0.13 99 1013.2
20260507083048 10 163 4.8 16.1 0.10 0.13 0.13 99 1013.1
20260507081541 10 175 4.8 17.7 0.08 0.10 0.10 99 1013.2
20260507080050 10 220 4.8 14.5 0.08 0.08 0.08 99 1013.7
20260507074543 10 180 3.2 16.1 0.08 0.08 0.08 99 1013.4
20260507073035 10 225 6.4 17.7 0.03 0.03 0.03 99 1014.3
20260507071552 10 210 4.8 14.5 0.03 0.03 0.03 99 1014.4
20260507070034 10 200 1.6 11.3 0.00 0.00 0.00 98 1014.5
20260507064530 10 179 4.8 12.9 0.00 0.00 0.00 99 1014.5
20260507063032 10 179 1.6 6.4 0.00 0.00 0.00 99 1014.6
20260507061526 10 228 1.6 12.9 0.00 0.00 0.00 99 1015.0
20260507060031 10 212 3.2 8.0 0.00 0.00 0.00 98 1015.2
20260507054522 10 250 3.2 8.0 0.00 0.00 0.00 98 1015.4
20260507053023 10 205 0.0 9.7 0.00 0.00 0.00 98 1015.7
20260507051518 10 241 3.2 9.7 0.00 0.00 0.00 98 1016.0
20260507050015 10 251 1.6 12.9 0.00 0.00 0.00 98 1016.4
20260507044513 10 312 3.2 11.3 0.00 0.00 0.00 98 1016.7
20260507043011 10 240 3.2 12.9 0.00 0.00 0.00 98 1017.0
20260507041507 9 300 3.2 11.3 0.00 0.00 0.00 97 1017.2
20260507040117 10 322 1.6 11.3 0.00 0.00 0.00 97 1017.5
20260507034502 10 310 1.6 14.5 0.00 0.00 0.00 97 1017.7
20260507033058 10 289 3.2 16.1 0.00 0.00 0.00 97 1018.0
20260507031558 10 238 3.2 12.9 0.00 0.00 0.00 97 1018.3
20260507030055 10 262 8.0 22.5 0.00 0.00 0.00 97 1018.4
20260507024552 10 254 4.8 16.1 0.00 0.00 0.00 97 1018.5
20260507023050 10 313 3.2 12.9 0.00 0.00 0.00 96 1018.7
20260507021550 10 269 4.8 17.7 0.00 0.00 0.00 96 1018.8
20260507020100 10 309 11.3 20.9 0.00 0.00 0.00 96 1018.8
20260507014600 11 262 4.8 16.1 0.00 0.00 0.00 95 1018.9
20260507013047 11 239 6.4 19.3 0.00 0.00 0.00 95 1018.8
20260507011555 11 210 8.0 19.3 0.00 0.00 0.00 94 1019.1
20260507010046 11 268 4.8 22.5 0.00 0.00 0.00 92 1019.3
20260507004545 11 235 8.0 25.7 0.00 0.00 0.00 91 1019.3
20260507003044 11 193 6.4 20.9 0.00 0.00 0.00 91 1019.4